Albany, NY

12:42 PM EST on December 11, 2019 (GMT -0500)
Albany International

Weather History for KALB - August, 2019

Change the Weather History Date:

Wednesday, August 7, 2019

  Actual Average Record
Temperature  
Mean Temperature 77 °F 71 °F  
Max Temperature 84 °F 82 °F 102 °F (1918)
Min Temperature 69 °F 61 °F 46 °F (1994)
Degree Days  
Heating Degree Days 0 0  
Month to date heating degree days 0 0  
Since 1 June heating degree days 27 57  
Since 1 July heating degree days 0 5  
Cooling Degree Days 12 7  
Month to date cooling degree days 60 49  
Year to date cooling degree days 566 415  
Since 1 June cooling degree days 544 385  
Growing Degree Days 26 (Base 50)    
Moisture  
Dew Point 67 °F    
Average Humidity 76    
Maximum Humidity 90    
Minimum Humidity 62    
Precipitation  
Precipitation 0.25 in 0.12 in 2.82 in (1901)
Month to date precipitation 1.23 0.88  
Year to date precipitation 26.09 23.57  
Sea Level Pressure  
Sea Level Pressure 29.78 in    
Wind  
Wind Speed 8 mph (South)    
Max Wind Speed 20 mph    
Max Gust Speed 25 mph    
Visibility 10 miles    
Events Rain , Thunderstorm    
T = Trace of Precipitation, MM = Missing Value Source: NWS Daily Summary

Daily Weather History Graph

Daily Weather History Graph

Search for Another Location

Airport or City:

Astronomy

Aug. 07, 2019 Rise Set
Actual Time 5:52 AM EDT 8:08 PM EDT
Civil Twilight 5:21 AM EDT 8:39 PM EDT
Nautical Twilight 4:42 AM EDT 9:18 PM EDT
Astronomical Twilight 3:59 AM EDT 10:01 PM EDT
Moon 1:32 PM EDT (8/7) No Moon Set
Length of Visible Light 15h 18m
Length of Day
14h 15m
Waxing Crescent, 49% of the Moon is Illuminated
Aug 7
Waxing Crescent
Aug 7
First Quarter
Aug 15
Full
Aug 23
Last Quarter
Aug 30
New

Hourly Weather History & Observations

Time (EDT) Temp. Heat Index Dew Point Humidity Pressure Visibility Wind Dir Wind Speed Gust Speed Precip Events Conditions
12:51 AM 72.0 °F - 66.9 °F 84% 29.80 in 10.0 mi South 5.8 mph - N/A   Overcast
1:51 AM 71.1 °F - 66.9 °F 87% 29.80 in 10.0 mi South 4.6 mph - N/A   Mostly Cloudy
2:51 AM 71.1 °F - 66.9 °F 87% 29.81 in 10.0 mi South 4.6 mph - N/A   Overcast
3:09 AM 71.1 °F - 66.9 °F 87% 29.82 in 10.0 mi South 6.9 mph - N/A   Overcast
3:33 AM 71.1 °F - 66.9 °F 87% 29.81 in 10.0 mi SSE 3.5 mph - N/A   Overcast
3:51 AM 71.1 °F - 66.9 °F 87% 29.81 in 10.0 mi SSE 3.5 mph - N/A   Overcast
4:14 AM 70.0 °F - 66.0 °F 87% 29.81 in 10.0 mi Calm Calm - N/A   Overcast
4:51 AM 69.1 °F - 66.0 °F 90% 29.81 in 10.0 mi Calm Calm - N/A   Overcast
5:51 AM 69.1 °F - 64.9 °F 87% 29.82 in 10.0 mi Calm Calm - N/A   Mostly Cloudy
6:51 AM 70.0 °F - 64.9 °F 84% 29.83 in 10.0 mi South 4.6 mph - N/A   Mostly Cloudy
7:51 AM 70.0 °F - 66.0 °F 87% 29.83 in 10.0 mi SSE 5.8 mph - N/A   Mostly Cloudy
8:29 AM 72.0 °F - 66.0 °F 81% 29.84 in 10.0 mi South 8.1 mph - N/A   Mostly Cloudy
8:51 AM 73.0 °F - 66.9 °F 81% 29.83 in 10.0 mi Variable 6.9 mph - N/A   Mostly Cloudy
9:02 AM 73.0 °F - 66.0 °F 79% 29.83 in 10.0 mi SSE 9.2 mph - N/A   Scattered Clouds
9:51 AM 73.9 °F - 66.0 °F 76% 29.83 in 10.0 mi South 9.2 mph - N/A   Mostly Cloudy
10:51 AM 78.1 °F - 68.0 °F 71% 29.82 in 10.0 mi South 6.9 mph - N/A   Scattered Clouds
11:51 AM 81.0 °F 83.3 °F 66.9 °F 62% 29.81 in 10.0 mi SW 11.5 mph - N/A   Scattered Clouds
12:51 PM 82.9 °F 85.8 °F 68.0 °F 60% 29.79 in 10.0 mi SSW 11.5 mph - N/A   Scattered Clouds
1:51 PM 77.0 °F - 70.0 °F 79% 29.78 in 10.0 mi South 8.1 mph - 0.03 in Rain , Thunderstorm Light Thunderstorms and Rain
2:45 PM 73.4 °F - 66.2 °F 78% 29.76 in 2.0 mi Variable 3.5 mph - 0.05 in Rain , Thunderstorm Heavy Thunderstorms and Rain
2:51 PM 73.9 °F - 66.9 °F 79% 29.75 in 2.5 mi WSW 3.5 mph - 0.11 in Rain , Thunderstorm Heavy Thunderstorms and Rain
3:10 PM 75.0 °F - 70.0 °F 84% 29.74 in 10.0 mi ESE 5.8 mph - 0.11 in   Mostly Cloudy
3:51 PM 80.1 °F 83.6 °F 71.1 °F 74% 29.73 in 10.0 mi SE 3.5 mph - 0.11 in   Mostly Cloudy
4:51 PM 82.0 °F 85.9 °F 70.0 °F 67% 29.71 in 10.0 mi SSE 8.1 mph - N/A   Overcast
5:51 PM 80.1 °F 82.3 °F 66.9 °F 64% 29.73 in 10.0 mi South 12.7 mph 20.7 mph 0.00 in   Overcast
6:51 PM 75.0 °F - 64.9 °F 71% 29.73 in 10.0 mi South 17.3 mph 21.9 mph N/A   Overcast
7:51 PM 73.9 °F - 64.9 °F 73% 29.73 in 10.0 mi SSE 11.5 mph - N/A   Overcast
8:51 PM 73.0 °F - 64.9 °F 76% 29.74 in 10.0 mi South 12.7 mph - N/A   Overcast
9:51 PM 72.0 °F - 64.9 °F 78% 29.75 in 10.0 mi SSE 9.2 mph - N/A   Overcast
10:51 PM 72.0 °F - 64.9 °F 78% 29.74 in 10.0 mi South 6.9 mph - N/A   Overcast
11:51 PM 71.1 °F - 66.0 °F 84% 29.72 in 10.0 mi South 9.2 mph - 0.00 in Rain Light Rain